sat.trackr.live / text

‹ back to catalog

STARLINK-35942

NORAD 66926 · 2025-286B

PAYLOAD ACTIVE UNKNOWN

§ Identity

Operator
Country
US
Launch date
2025-12-07
Launch site
AFWTR
Launch vehicle
Mass (kg)
RCS (m²)

Purposes: comms

External: N2YO · Heavens-Above · Gunter

§ Orbital elements

Epoch: 2026-05-24T23:54:02.111328Z

Period
93.90 min
Inclination
53.1617°
Eccentricity
0.0000880
Mean motion
15.33563444 rev/d
Perigee alt
464.6 km
Apogee alt
465.8 km
Semi-major
6,843.3 km
B*
3.2308e-4
RAAN
3.7279°
Arg perigee
106.0198°
Mean anomaly
254.0901°
Rev number
2,710

§ Raw data

STARLINK-359421 66926U 25286B   26144.99585777  .00010272  00000+0  32308-3 0  99962 66926  53.1617   3.7279 0000880 106.0198 254.0901 15.33563444 27102

JSON: /api/v1/satellites/66926 · /tle

For live sub-satellite position, see the globe view (requires WebGL).

§ Visibility from observer

Set your observer location to see the next 7 days of passes ≥ 10°. The values pass through the URL so the page stays shareable.

No JS? Fill the form by hand. The geolocation button needs JavaScript.